This is the latest recevied weather packets stored in our database for station/object KH6DH-13. If no packets are shown the sender has not sent any weather packets the latest 10 day(s).
| Time | Temp. | Humidity | Pressure | Rain* | Wind** | Luminosity | Snow |
|---|---|---|---|---|---|---|---|
| 1777621049 | 22.78° C | - | - | 0 mm | 0.45 m/s, 66° | - | - |
| 1777620448 | 22.78° C | - | - | 0.25 mm | 1.79 m/s, 86° | - | - |
| 1777619847 | 23.33° C | - | - | 0.25 mm | 3.13 m/s, 120° | - | - |
| 1777619246 | 22.78° C | - | - | 0.25 mm | 1.34 m/s, 298° | - | - |
| 1777618645 | 22.78° C | - | - | 0.25 mm | 0.89 m/s, 353° | - | - |
| 1777618044 | 23.33° C | - | - | 0.25 mm | 1.79 m/s, 225° | - | - |
| 1777617443 | 22.78° C | - | - | 0.25 mm | 0.45 m/s, 91° | - | - |
| 1777616842 | 23.33° C | - | - | 0 mm | 0.89 m/s, 87° | - | - |
| 1777616241 | 23.33° C | - | - | 0 mm | 0.89 m/s, 6° | - | - |
| 1777615640 | 23.89° C | - | - | 0 mm | 1.34 m/s, 35° | - | - |
| 1777615039 | 23.89° C | - | - | 0 mm | 2.68 m/s, 0° | - | - |
| 1777614438 | 24.44° C | - | - | 0 mm | 0.45 m/s, 141° | - | - |
| 1777613837 | 23.89° C | - | - | 0 mm | 0.89 m/s, 132° | - | - |
| 1777613236 | 23.89° C | - | - | 0 mm | 0.45 m/s, 141° | - | - |
| 1777612635 | 24.44° C | - | - | 0 mm | 1.34 m/s, 89° | - | - |
| 1777612034 | 24.44° C | - | - | 0 mm | 2.68 m/s, 142° | - | - |
| 1777611429 | 25° C | - | - | 0 mm | 1.79 m/s, 20° | - | - |
| 1777610828 | 25° C | - | - | 0 mm | 2.24 m/s, 76° | - | - |
| 1777610227 | 25° C | - | - | 0 mm | 1.79 m/s, 41° | - | - |
| 1777609622 | 25° C | - | - | 0 mm | 2.68 m/s, 59° | - | - |
| 1777609021 | 25.56° C | - | - | 0 mm | 1.79 m/s, 267° | - | - |
| 1777608420 | 26.11° C | - | - | 0 mm | 1.34 m/s, 205° | - | - |
| 1777607819 | 26.67° C | - | - | 0 mm | 1.79 m/s, 20° | - | - |
| 1777607218 | 26.11° C | - | - | 0 mm | 1.34 m/s, 6° | - | - |
| 1777606617 | 26.11° C | - | - | 0 mm | 1.34 m/s, 273° | - | - |
* Rain latest hour (hover to see other rain measurements)
** Current wind speed in m/s (hover to see current wind gust speed)